Find Kuiper-00092

NORAD ID: 64837 Int'l Des: 2025-151 Owner: KUIP Country: US Constellation: kuiper operational
LEOCIRCULAR

实时位置

正在加载3D地球...

关于 Kuiper-00092

正在加载描述...

即将过境

Passes for default location (London). Set your location on the main map for personalized predictions.

高度历史

Loading altitude history...

两行轨道根数

1 64837U 25151X 26103.78505588 .00001385 00000-0 21057-3 0 9995
2 64837 51.8996 135.4039 0000854 52.4537 307.6503 14.79943097 41851
Epoch: Apr 13, 2026 • Age: 17 hours

当前状态

高度 634.2 km
速度 7.55 km/s
星下点 48.23°N, 179.97°W
发射日期 Jul 16, 2025
运行时间 0.7 years
类型 internet

技术详情

分类 Payload
质量 490.00 kg
干质量 490.00 kg
总质量 490.00 kg
长度 1.80 m
直径 0.70 m
跨度 5.00 m
形状 Box + 2 pan
制造商 KUIP
平台类型 Kuiper
阶段状态 In Orbit
所有者/国家 KUIP/US

Most Searched